Regional Weather Roundup
Issued by NWS

Home | Current Version | Previous Version | Text Only | Print | Product List | Glossary Off
Versions: 1 2 3 4 5 6 7 8 9 10 11 12 13 14 15 16 17 18 19 20 21 22 23 24 25 26 27 28

000
ASUS45 KCYS 222010
RWRWY

WYOMING REGIONAL WEATHER ROUNDUP
NATIONAL WEATHER SERVICE CHEYENNE WY
200 PM MDT TUE AUG 22 2017

NOTE:  "FAIR" INDICATES FEW OR NO CLOUDS BELOW 12,000 FEET
WITH NO SIGNIFICANT WEATHER AND/OR OBSTRUCTIONS TO VISIBILITY.

WYZ001-222100-
YELLOWSTONE NATIONAL PARK

CITY           SKY/WX    TMP DP  RH WIND       PRES   REMARKS
LK YELLOWSTONE   N/A     72  44  36 CALM      30.42F
W YELLOWSTONE  NOT AVBL

$$
WYZ002>013-054>058-071-098>099-222100-
NORTHERN WYOMING

CITY           SKY/WX    TMP DP  RH WIND       PRES   REMARKS
JACKSON        FAIR      78  35  21 S7        30.32F
CODY           FAIR      83  35  18 VRB6      30.21F
GREYBULL         N/A     85  34  16 S8        30.15F
WORLAND        FAIR      84  37  18 N6        30.17F
SHERIDAN       FAIR      85  34  16 N5        30.18F
BUFFALO        FAIR      83  30  14 NW8       30.24F
GILLETTE       FAIR      83  37  19 VRB6      30.18F
HULETT         FAIR      81  41  24 S8        30.22F
NEWCASTLE      FAIR      81  43  26 SE12G24   30.22F

$$
WYZ014>020-022>026-101>103-222100-
CENTRAL WYOMING

CITY           SKY/WX    TMP DP  RH WIND       PRES   REMARKS
BIG PINEY      FAIR      78  26  14 VRB3      30.36F
PINEDALE       FAIR      79  21  11 N13G20    30.37F
DUBOIS         FAIR      79  27  14 NW7       30.33F
LANDER           N/A    N/A N/A N/A MISG      30.23F
RIVERTON       FAIR      79  39  23 VRB7      30.25F
CASPER         FAIR      84  39  20 VRB6      30.24F
DOUGLAS        FAIR      80  47  31 VRB3      30.24F

$$
WYZ021-027>030-104>119-222100-
SOUTHERN WYOMING

CITY           SKY/WX    TMP DP  RH WIND       PRES   REMARKS
EVANSTON       FAIR      79  33  19 VRB3      30.37F
KEMMERER         N/A     81  27  13 W8G16     30.39F
FORT BRIDGER   CLOUDY    79  34  19 S20G25    30.40R THUNDER
ROCK SPRINGS   FAIR      83  26  12 VRB6      30.34F
DIXON          FAIR      84  28  13 SW10G16   30.35F
RAWLINS        NOT AVBL
SARATOGA       FAIR      81  28  15 N3G17     30.36F
LARAMIE        FAIR      81  32  17 NW12G23   30.35F
CHEYENNE       FAIR      73  55  53 S13G20    30.33F
TORRINGTON     FAIR      84  51  31 SE15G24   30.20F
PINE BLUFFS    FAIR      77  50  38 S14G20    30.30F

$$




USA.gov is the U.S. government's official web portal to all federal, state and local government web resources and services.